Location: Dötzum
(52.0808°N, 9.8063°E)
Time: 07:40:12
(UTC+00:00)

USA-17 - Pass Details

Date: 27 May 2022
Orbit: 384 x 1760 km, 63.3° (Epoch: 28 June)

Event Time Altitude Azimuth Distance (km) Brightness Sun altitude
Rises 01:01:28 0° 314° (NW) 2,301 8.3 -13.2°
Reaches altitude 10° 01:03:20 10° 314° (NW) 1,486 7.3 -13.1°
Maximum altitude 01:06:31 88° 48° (NE) 468 4.4 -12.9°
Drops below altitude 10° 01:10:29 10° 135° (SE) 1,845 7.3 -12.6°
Sets 01:13:03 0° 136° (SE) 2,933 8.3 -12.5°
